Stations météo

réclame
Mon MeteoGroup
Ronchi Dei Legionari, Italie (16108): Température de l'air & dewpoint: 10.12.2017 04:00:00 - 16.12.2017 04:00:00 (CET)Ronchi Dei Legionari, Italie (16108): Vitesse du vent: 10.12.2017 04:00:00 - 16.12.2017 04:00:00 (CET)Ronchi Dei Legionari, Italie (16108): Direction du vent: 10.12.2017 04:00:00 - 16.12.2017 04:00:00 (CET)Ronchi Dei Legionari, Italie (16108): reduced air pressure: 10.12.2017 04:00:00 - 16.12.2017 04:00:00 (CET)Ronchi Dei Legionari, Italie (16108): visibility: 10.12.2017 04:00:00 - 16.12.2017 04:00:00 (CET)Ronchi Dei Legionari, Italie (16108): Quantités de précipitations: 10.12.2017 04:00:00 - 16.12.2017 04:00:00 (CET)
Date & Time tt [°C] td [°C] ff [km/h] ff [knt] dd ppp [hPa] vv [km] rr [mm]
16.12.2017 04:00:00 4,7 3,4 9 5 W 1001,7 10 0,0
16.12.2017 03:00:00 5,0 4,0 9 5 W - 10 -
16.12.2017 02:00:00 5,0 3,0 8 4 E - 10 -
16.12.2017 01:00:00 4,8 2,9 9 5 NE 1000,7 10 -
16.12.2017 00:00:00 6,0 3,0 18 10 NE - 8 -
15.12.2017 23:00:00 6,0 4,0 15 8 ENE - 9 -
15.12.2017 22:00:00 7,4 5,1 29 16 E 997,0 5 0,0
15.12.2017 21:00:00 9,0 8,0 5 3 SE - 10 -
15.12.2017 20:00:00 9,0 9,0 8 4 NE - 10 -
15.12.2017 19:00:00 9,7 8,9 5 3 ENE 996,5 10 -
15.12.2017 18:00:00 9,0 9,0 5 3 NNE - 10 -
15.12.2017 17:00:00 10,0 9,0 8 4 NE - 10 -
15.12.2017 16:00:00 9,9 9,4 5 3 N 997,4 8 0,0
15.12.2017 15:00:00 11,0 9,0 2 1 - - 10 -
15.12.2017 14:00:00 12,0 9,0 9 5 S - 10 -
15.12.2017 13:00:00 11,8 8,7 11 6 S 998,6 10 -
15.12.2017 12:00:00 11,0 9,0 11 6 S - 10 -
15.12.2017 11:00:00 10,0 8,0 8 4 S - 10 -
15.12.2017 10:00:00 8,3 7,7 5 3 NW 999,5 10 0,0
15.12.2017 09:00:00 8,0 7,0 5 3 NNE - 8 -
15.12.2017 08:00:00 8,0 7,0 8 4 N - 8 -
15.12.2017 07:00:00 6,9 6,5 4 2 NNE 999,2 8 -
15.12.2017 06:00:00 7,0 6,0 4 2 - - 6 -
15.12.2017 05:00:00 6,0 6,0 2 1 - - 5 -
15.12.2017 04:00:00 6,7 6,3 4 2 NW 1000,5 6 0,0
15.12.2017 03:00:00 7,0 6,0 5 3 N - 8 -
15.12.2017 02:00:00 6,0 6,0 5 3 N - 3,6 -
15.12.2017 01:00:00 6,4 6,1 8 4 NNW 1002,0 5 -
15.12.2017 00:00:00 7,0 6,0 4 2 - - 10 -
14.12.2017 23:00:00 7,0 6,0 2 1 - - 10 -
14.12.2017 22:00:00 6,8 5,9 5 3 N 1004,1 10 0,0
14.12.2017 21:00:00 7,0 6,0 8 4 NNE - 10 -
14.12.2017 20:00:00 7,0 6,0 5 3 NNE - 10 -
14.12.2017 19:00:00 6,6 6,2 4 2 NW 1006,2 10 -
14.12.2017 18:00:00 7,0 6,0 4 2 NNW - 10 -
14.12.2017 17:00:00 7,0 6,0 4 2 SSW - 10 -
14.12.2017 16:00:00 7,2 6,4 4 2 N 1006,7 10 0,0
14.12.2017 15:00:00 7,0 6,0 5 3 N - 10 -
14.12.2017 14:00:00 7,0 6,0 5 3 N - 10 -
14.12.2017 13:00:00 6,8 6,1 8 4 N 1007,7 6 -
14.12.2017 12:00:00 7,0 6,0 9 5 N - 7 -
14.12.2017 11:00:00 7,0 6,0 5 3 NNE - 5 -
14.12.2017 10:00:00 6,4 5,9 9 5 NNE 1009,4 4,0 0,0
14.12.2017 09:00:00 6,0 6,0 8 4 NNE - 2,0 -
14.12.2017 08:00:00 6,0 5,0 5 3 N - 6 -
14.12.2017 07:00:00 5,3 4,8 4 2 NNE 1009,4 10 -
14.12.2017 06:00:00 5,0 5,0 4 2 NNE - 10 -
14.12.2017 05:00:00 5,0 5,0 4 2 N - 10 -
14.12.2017 04:00:00 4,5 4,2 4 2 ESE 1010,6 10 0,0
14.12.2017 03:00:00 4,0 4,0 4 2 NNE - 9 -
14.12.2017 02:00:00 4,0 4,0 2 1 - - 10 -
14.12.2017 01:00:00 5,2 4,2 5 3 NNW 1012,6 10 -
14.12.2017 00:00:00 6,0 5,0 5 3 WNW - 10 -
13.12.2017 23:00:00 5,0 3,0 4 2 - - 10 -
13.12.2017 22:00:00 5,9 3,7 5 3 ENE 1014,1 10 0,0
13.12.2017 21:00:00 6,0 4,0 5 3 N - 10 -
13.12.2017 20:00:00 6,0 2,0 9 5 NNE - 10 -
13.12.2017 19:00:00 5,7 3,0 9 5 E 1015,6 10 -
13.12.2017 18:00:00 6,0 2,0 5 3 ENE - 10 -
13.12.2017 17:00:00 6,0 2,0 9 5 E - 10 -
13.12.2017 16:00:00 6,2 2,8 11 6 E 1016,4 10 0,0
13.12.2017 15:00:00 7,0 3,0 5 3 E - 10 -
13.12.2017 14:00:00 7,0 3,0 11 6 E - 10 -
13.12.2017 13:00:00 6,6 3,3 21 11 E 1016,9 10 -
13.12.2017 12:00:00 6,0 3,0 31 17 E - 10 -
13.12.2017 11:00:00 6,0 3,0 28 15 E - 8 -
13.12.2017 10:00:00 8,0 3,0 18 10 E - 10 -
13.12.2017 09:00:00 8,0 2,0 24 13 E - 10 -
13.12.2017 08:00:00 8,0 4,0 21 11 E - 10 -
13.12.2017 07:00:00 10,2 7,4 13 7 SE 1016,0 10 -
13.12.2017 06:00:00 10,0 7,0 15 8 SE - 10 -
13.12.2017 05:00:00 10,0 7,0 16 9 SE - 10 -
13.12.2017 04:00:00 10,3 7,1 15 8 SE 1014,8 10 0,0
13.12.2017 03:00:00 10,0 7,0 13 7 SSE - 10 -
13.12.2017 02:00:00 10,0 7,0 13 7 SE - 10 -
13.12.2017 01:00:00 10,0 7,4 11 6 SSE 1014,8 10 -
13.12.2017 00:00:00 11,0 7,0 15 8 SE - 10 -
12.12.2017 23:00:00 10,0 8,0 11 6 SE - 10 -
12.12.2017 22:00:00 9,7 7,5 11 6 SE 1013,5 10 0,0
12.12.2017 21:00:00 11,0 8,0 13 7 SE - 10 -
12.12.2017 20:00:00 10,0 9,0 9 5 SE - 10 -
12.12.2017 19:00:00 10,3 9,1 4 2 E 1012,7 10 -
12.12.2017 18:00:00 - - - - - - - -
12.12.2017 17:00:00 11,0 9,0 9 5 SE - 10 -
12.12.2017 16:00:00 11,5 9,5 9 5 SE 1011,1 10 0,0
12.12.2017 15:00:00 13,0 10,0 8 4 SSE - 10 -
12.12.2017 14:00:00 13,0 10,0 8 4 SSE - 10 -
12.12.2017 13:00:00 13,4 11,6 8 4 S 1009,7 10 -
12.12.2017 12:00:00 13,0 12,0 8 4 S - 10 -
12.12.2017 11:00:00 13,0 12,0 11 6 SSW - 10 -
12.12.2017 10:00:00 13,4 12,3 13 7 S 1008,4 8 0,0
12.12.2017 09:00:00 14,0 10,0 16 9 SSW - 10 -
12.12.2017 08:00:00 13,0 12,0 15 8 S - 8 -
12.12.2017 07:00:00 12,8 10,8 21 11 S 1004,6 10 -
12.12.2017 06:00:00 13,0 12,0 31 17 SW - 10 -
12.12.2017 05:00:00 15,0 11,0 31 17 S - 10 -
12.12.2017 04:00:00 15,2 10,4 28 15 S 1000,7 10 0,0
12.12.2017 03:00:00 15,0 11,0 29 16 SSE - 10 -
12.12.2017 02:00:00 16,0 10,0 34 18 SSE - 10 -
12.12.2017 01:00:00 16,0 9,9 35 19 SSE 999,0 10 -
12.12.2017 00:00:00 15,0 10,0 31 17 SSE - 10 -
11.12.2017 23:00:00 16,0 10,0 31 17 SSE - 10 -
11.12.2017 22:00:00 15,6 9,8 28 15 SSE 999,4 10 0,0
11.12.2017 21:00:00 15,0 10,0 26 14 SSE - 10 -
11.12.2017 20:00:00 14,0 10,0 15 8 S - 10 -
11.12.2017 19:00:00 15,0 9,9 21 11 S 1000,0 10 -
11.12.2017 18:00:00 15,0 9,0 26 14 SSE - 10 -
11.12.2017 17:00:00 15,0 9,0 22 12 SSE - 10 -
11.12.2017 16:00:00 15,4 9,3 24 13 S 999,2 10 0,0
11.12.2017 15:00:00 15,0 10,0 24 13 S - 10 -
11.12.2017 14:00:00 14,0 11,0 13 7 S - 10 -
11.12.2017 13:00:00 10,3 10,2 4 2 - 1000,1 5 -
11.12.2017 12:00:00 - - - - - - - -
11.12.2017 11:00:00 7,0 7,0 8 4 N - 4,0 -
11.12.2017 10:00:00 7,0 6,9 4 2 - 1001,0 6 0,0
11.12.2017 09:00:00 7,0 7,0 4 2 - - 2,0 -
11.12.2017 08:00:00 6,0 6,0 2 1 - - 3,0 -
11.12.2017 07:00:00 6,0 5,9 5 3 - 1001,2 4,0 -
11.12.2017 06:00:00 6,0 6,0 5 3 - - 5 -
11.12.2017 05:00:00 5,0 5,0 4 2 - - 2,0 -
11.12.2017 04:00:00 4,3 4,1 2 1 - 1001,8 1,2 0,0
11.12.2017 03:00:00 4,0 4,0 2 1 - - 1,1 -
11.12.2017 02:00:00 3,0 3,0 9 5 N - 5 -
11.12.2017 01:00:00 2,5 2,2 9 5 NNW 1003,1 6 -
11.12.2017 00:00:00 2,0 1,0 15 8 N - 7 -
10.12.2017 23:00:00 2,0 1,0 15 8 N - 7 -
10.12.2017 22:00:00 1,5 0,9 15 8 NNE 1005,5 10 0,0
10.12.2017 21:00:00 1,0 1,0 13 7 NNE - 10 -
10.12.2017 20:00:00 1,0 0,0 5 3 ENE - 5 -
10.12.2017 19:00:00 0,5 0,1 5 3 NE 1008,2 1,5 -
10.12.2017 18:00:00 1,0 0,0 8 4 NNE - 2,0 -
10.12.2017 17:00:00 3,0 -1,0 5 3 N - 4,0 -
10.12.2017 16:00:00 3,3 -1,7 4 2 - 1009,2 10 0,0
10.12.2017 15:00:00 3,0 -1,0 4 2 - - 10 -
10.12.2017 14:00:00 4,0 -1,0 8 4 N - 10 -
10.12.2017 13:00:00 3,1 -1,2 5 3 N 1011,7 10 -
10.12.2017 12:00:00 3,0 -2,0 5 3 NNE - 10 -
10.12.2017 11:00:00 3,0 -1,0 5 3 NW - 10 -
10.12.2017 10:00:00 2,6 -1,0 5 3 E 1014,3 10 0,0
10.12.2017 09:00:00 -1,0 -3,0 5 3 E - 10 -
10.12.2017 08:00:00 -1,0 -4,0 5 3 NNE - 10 -
10.12.2017 07:00:00 -1,0 -3,8 8 4 NNE 1014,8 10 -
10.12.2017 06:00:00 -1,0 -4,0 5 3 NNE - 10 -
10.12.2017 05:00:00 -1,0 -4,0 8 4 ENE - 10 -
10.12.2017 04:00:00 -1,1 -3,8 5 3 ENE 1015,6 10 0,0

tt = Température de l'air
td = dewpoint
ff = Vitesse du vent
dd = Direction du vent
ppp = reduced air pressure
vv = visibility
rr = Quantités de précipitations

stations d'obs. à proximité